Terminal Aerodrome Forecast
Issued by NWS Glasgow, MT

Home | Current Version | Previous Version | Text Only | Print | Product List | Glossary On
Versions: 1 2 3 4 5 6 7 8 9 10 11 12 13
000
FTUS45 KGGW 261913 AAA
TAFGGW
TAF AMD
KGGW 261913Z 2619/2718 31009KT P6SM -SHRA FEW015 OVC060
     FM262100 32010KT P6SM -SHRA OVC040
     FM270000 03009KT P6SM VCSH BKN045
     FM270600 06005KT P6SM BKN060=

USA.gov is the U.S. government's official web portal to all federal, state and local government web resources and services.